Flag for Germany Weather past 2 weeks in Landau in der Pfalz, Rhineland-Palatinate, Germany

Now
79 °F

Passing clouds.


Feels Like: 80 °F
Forecast: 51 / 70 °F
Wind: 10 mph from South

Location: Baden Wurttemberg - Neuostheim

Current Time: Sep 1, 2015 at 12:52:22 PM

Latest Report: Sep 1, 2015 at 12:20 PM


Visibility: N/A

Pressure: 29.77 "Hg

Humidity: 48%

Dew point: 57 °F

Location of Landau in der PfalzLocation

Historic Weather in Landau in der Pfalz — Graph

°F

Landau in der Pfalz temperature yesterday

Maximum temperature yesterday: 93 °F (at 4:20 PM)
Minimum temperature yesterday: 70 °F (at 6:20 AM)
Average temperature yesterday: 84 °F

Past Weeks' High & Low Weather Summary

 TemperatureHumidityPressure
High93 °F (Aug 30, 4:50 PM)100% (Aug 17, 9:20 PM)30.27 "Hg (Aug 17, 9:20 PM)
Low54 °F (Aug 19, 5:20 AM)21% (Aug 31, 4:20 PM)29.68 "Hg (Aug 23, 4:50 PM)
Average71 °F59%30.01 "Hg
* Reported Aug 17 11:20 AM — Sep 1 11:20 AM, Landau in der Pfalz, Weather by CustomWeather, © 2015

Note: Actual official high and low records may vary slightly from our data, if they occured in-between our weather recording intervals... More about our weather records

Advertising

Landau in der Pfalz weather history for previous 24 hours

 ConditionsComfort  
Time TempWeatherWind HumidityBarometerVisibility
11:20 AM
Tue, Sep 1
77 °FPassing clouds.10 mph54%29.77 "HgN/A
10:50 AM75 °FPassing clouds.6 mph57%29.80 "HgN/A
10:20 AM75 °FPassing clouds.8 mph61%29.77 "HgN/A
9:50 AM73 °FPassing clouds.7 mph65%29.77 "HgN/A
9:20 AM73 °FPassing clouds.5 mph65%29.77 "HgN/A
8:50 AM73 °FSunny.6 mph61%29.77 "Hg10 mi
8:20 AM73 °FSunny.3 mph65%29.77 "Hg10 mi
7:50 AM72 °FSunny.2 mph65%29.80 "Hg10 mi
7:20 AM70 °FClear.1 mph73%29.80 "Hg10 mi
6:50 AM70 °FClear.1 mph69%29.80 "Hg10 mi
11:20 PM
Mon, Aug 31
81 °FClear.6 mph45%29.83 "Hg10 mi
10:50 PM81 °FClear.6 mph42%29.83 "Hg10 mi
10:20 PM82 °FPassing clouds.5 mph40%29.83 "HgN/A
9:20 PM81 °FClear.2 mph42%29.83 "Hg10 mi
8:50 PM84 °FSunny.5 mph35%29.83 "Hg10 mi
7:50 PM90 °FPassing clouds.6 mph27%29.80 "HgN/A
7:20 PM91 °FPassing clouds.8 mph26%29.80 "HgN/A
6:50 PM91 °FPassing clouds.10 mph24%29.83 "HgN/A
6:20 PM91 °FPassing clouds.12 mph24%29.83 "HgN/A
5:50 PM93 °FPassing clouds.12 mph23%29.83 "HgN/A
5:20 PM93 °FPassing clouds.10 mph21%29.83 "HgN/A
4:50 PM93 °FPassing clouds.14 mph21%29.83 "HgN/A
4:20 PM93 °FPassing clouds.9 mph21%29.86 "HgN/A
3:50 PM91 °FPassing clouds.10 mph24%29.86 "HgN/A
3:20 PM91 °FPassing clouds.12 mph24%29.86 "HgN/A
2:50 PM91 °FPassing clouds.9 mph24%29.89 "HgN/A
2:20 PM91 °FPassing clouds.8 mph26%29.89 "HgN/A
1:50 PM90 °FPassing clouds.8 mph26%29.89 "HgN/A
1:20 PM90 °FPassing clouds.8 mph26%29.92 "HgN/A
12:50 PM88 °FPleasantly warm.10 mph27%29.92 "HgN/A
12:20 PM88 °FPleasantly warm.9 mph29%29.92 "HgN/A
Weather by CustomWeather, © 2015

See weather overviewHow to use our weather pages